• In Hungary
  • List of Countries
  • For 7 days
  • Water Temperature
  • Satellite Maps
  • Weather Map
  • News
  • Weather Widgets
  • user-avatar
    Login

    Hourly Weather Kouklia

    Today, 22 July, Sunday

    Time Temperature Precipitation Wind Pressure Humidity
    00:00 +29°C° 0 mm 4 mps 744 mmHg 69%
    01:00 +29°C° 0 mm 4 mps 744 mmHg 69%
    02:00 +29°C° 0 mm 4 mps 743 mmHg 69%
    03:00 +29°C° 0 mm 4 mps 743 mmHg 68%
    04:00 +28°C° 0 mm 3 mps 743 mmHg 66%
    05:00 +28°C° 0 mm 3 mps 743 mmHg 65%
    06:00 +30°C° 0 mm 3 mps 743 mmHg 58%
    07:00 +33°C° 0 mm 3 mps 743 mmHg 51%
    08:00 +35°C° 0 mm 4 mps 743 mmHg 44%
    09:00 +36°C° 0 mm 4 mps 743 mmHg 42%
    10:00 +37°C° 0 mm 4 mps 743 mmHg 40%
    11:00 +38°C° 0 mm 4 mps 743 mmHg 38%
    12:00 +39°C° 0 mm 5 mps 743 mmHg 37%
    13:00 +39°C° 0 mm 5 mps 743 mmHg 36%
    14:00 +40°C° 0 mm 6 mps 743 mmHg 34%
    15:00 +39°C° 0 mm 6 mps 743 mmHg 35%
    16:00 +38°C° 0 mm 6 mps 742 mmHg 36%
    17:00 +38°C° 0 mm 6 mps 742 mmHg 36%
    18:00 +36°C° 0 mm 6 mps 742 mmHg 42%
    19:00 +34°C° 0 mm 5 mps 742 mmHg 49%
    20:00 +33°C° 0 mm 5 mps 742 mmHg 55%
    21:00 +32°C° 0 mm 4 mps 742 mmHg 57%
    22:00 +32°C° 0 mm 4 mps 742 mmHg 59%
    23:00 +32°C° 0 mm 4 mps 742 mmHg 61%

    Tomorrow, 23 July, Monday

    Time Temperature Precipitation Wind Pressure Humidity
    00:00 +30°C° 0 mm 3 mps 742 mmHg 60%
    01:00 +30°C° 0 mm 3 mps 742 mmHg 59%
    02:00 +30°C° 0 mm 3 mps 741 mmHg 57%
    03:00 +30°C° 0 mm 3 mps 741 mmHg 55%
    04:00 +30°C° 0 mm 3 mps 741 mmHg 53%
    05:00 +30°C° 0 mm 3 mps 741 mmHg 51%
    06:00 +32°C° 0 mm 2 mps 741 mmHg 46%
    07:00 +35°C° 0 mm 2 mps 741 mmHg 41%
    08:00 +37°C° 0 mm 2 mps 742 mmHg 36%
    09:00 +38°C° 0 mm 2 mps 742 mmHg 34%
    10:00 +39°C° 0 mm 2 mps 742 mmHg 33%
    11:00 +40°C° 0 mm 3 mps 742 mmHg 31%
    12:00 +40°C° 0 mm 3 mps 742 mmHg 31%
    13:00 +40°C° 0 mm 3 mps 741 mmHg 31%
    14:00 +40°C° 0 mm 3 mps 741 mmHg 31%
    15:00 +40°C° 0 mm 4 mps 741 mmHg 31%
    16:00 +38°C° 0 mm 4 mps 741 mmHg 31%
    17:00 +39°C° 0 mm 5 mps 740 mmHg 32%
    18:00 +36°C° 0 mm 4 mps 741 mmHg 39%
    19:00 +34°C° 0 mm 4 mps 741 mmHg 47%
    20:00 +33°C° 0 mm 4 mps 741 mmHg 54%
    21:00 +31°C° 0 mm 3 mps 741 mmHg 54%
    22:00 +31°C° 0 mm 3 mps 741 mmHg 54%
    23:00 +30°C° 0 mm 3 mps 741 mmHg 53%

    Day after tomorrow, 24 July, Tuesday

    Time Temperature Precipitation Wind Pressure Humidity
    00:00 +30°C° 0 mm 3 mps 741 mmHg 54%
    01:00 +30°C° 0 mm 3 mps 741 mmHg 54%
    02:00 +30°C° 0 mm 3 mps 740 mmHg 54%
    03:00 +30°C° 0 mm 3 mps 740 mmHg 55%
    04:00 +29°C° 0 mm 4 mps 740 mmHg 55%
    05:00 +29°C° 0 mm 4 mps 740 mmHg 55%
    06:00 +31°C° 0 mm 3 mps 741 mmHg 49%
    07:00 +34°C° 0 mm 3 mps 741 mmHg 44%
    08:00 +36°C° 0 mm 3 mps 741 mmHg 38%
    09:00 +37°C° 0 mm 4 mps 741 mmHg 37%
    10:00 +38°C° 0 mm 4 mps 742 mmHg 36%
    11:00 +40°C° 0 mm 4 mps 742 mmHg 35%
    12:00 +40°C° 0 mm 5 mps 742 mmHg 32%
    13:00 +40°C° 0 mm 5 mps 742 mmHg 30%
    14:00 +41°C° 0 mm 6 mps 742 mmHg 28%
    15:00 +40°C° 0 mm 6 mps 742 mmHg 29%
    16:00 +39°C° 0 mm 5 mps 742 mmHg 31%
    17:00 +37°C° 0 mm 5 mps 742 mmHg 33%
    18:00 +36°C° 0 mm 5 mps 742 mmHg 40%
    19:00 +34°C° 0 mm 4 mps 742 mmHg 47%
    20:00 +33°C° 0 mm 4 mps 742 mmHg 54%
    21:00 +32°C° 0 mm 4 mps 742 mmHg 58%
    22:00 +32°C° 0 mm 4 mps 742 mmHg 61%
    23:00 +30°C° 0 mm 4 mps 742 mmHg 65%

    25 July, Wednesday

    Time Temperature Precipitation Wind Pressure Humidity
    00:00 +30°C° 0 mm 4 mps 742 mmHg 68%
    01:00 +29°C° 0 mm 4 mps 742 mmHg 71%
    02:00 +29°C° 0 mm 4 mps 742 mmHg 74%
    03:00 +28°C° 0 mm 4 mps 742 mmHg 76%
    04:00 +28°C° 0 mm 4 mps 742 mmHg 77%
    05:00 +28°C° 0 mm 4 mps 742 mmHg 79%
    06:00 +29°C° 0 mm 4 mps 742 mmHg 70%
    07:00 +30°C° 0 mm 3 mps 743 mmHg 62%
    08:00 +33°C° 0 mm 3 mps 743 mmHg 54%
    09:00 +34°C° 0 mm 3 mps 743 mmHg 49%
    10:00 +35°C° 0 mm 3 mps 743 mmHg 43%
    11:00 +36°C° 0 mm 3 mps 743 mmHg 38%
    12:00 +36°C° 0 mm 4 mps 743 mmHg 37%
    13:00 +36°C° 0 mm 4 mps 743 mmHg 36%
    14:00 +36°C° 0 mm 4 mps 743 mmHg 36%
    15:00 +36°C° 0 mm 4 mps 743 mmHg 39%
    16:00 +35°C° 0 mm 4 mps 743 mmHg 42%
    17:00 +34°C° 0 mm 4 mps 743 mmHg 45%
    18:00 +33°C° 0 mm 4 mps 743 mmHg 53%
    19:00 +32°C° 0 mm 4 mps 743 mmHg 61%
    20:00 +29°C° 0 mm 4 mps 743 mmHg 68%
    21:00 +29°C° 0 mm 4 mps 743 mmHg 72%
    22:00 +28°C° 0 mm 3 mps 743 mmHg 76%
    23:00 +28°C° 0 mm 3 mps 743 mmHg 79%

    26 July, Thursday

    Time Temperature Precipitation Wind Pressure Humidity
    00:00 +28°C° 0 mm 3 mps 743 mmHg 81%
    01:00 +27°C° 0 mm 3 mps 743 mmHg 82%
    02:00 +27°C° 0 mm 3 mps 743 mmHg 84%
    03:00 +26°C° 0 mm 3 mps 743 mmHg 85%
    04:00 +26°C° 0 mm 3 mps 743 mmHg 86%
    05:00 +26°C° 0 mm 3 mps 743 mmHg 87%
    06:00 +27°C° 0 mm 2 mps 744 mmHg 78%
    07:00 +29°C° 0 mm 2 mps 744 mmHg 68%
    08:00 +31°C° 0 mm 2 mps 744 mmHg 59%
    09:00 +33°C° 0 mm 3 mps 744 mmHg 55%
    10:00 +34°C° 0 mm 3 mps 745 mmHg 51%
    11:00 +35°C° 0 mm 4 mps 745 mmHg 46%
    12:00 +35°C° 0 mm 4 mps 745 mmHg 47%
    13:00 +35°C° 0 mm 5 mps 745 mmHg 48%
    14:00 +35°C° 0 mm 5 mps 745 mmHg 49%
    15:00 +34°C° 0 mm 5 mps 744 mmHg 51%
    16:00 +33°C° 0 mm 5 mps 744 mmHg 54%
    17:00 +33°C° 0 mm 5 mps 744 mmHg 57%
    18:00 +32°C° 0 mm 5 mps 744 mmHg 63%
    19:00 +30°C° 0 mm 5 mps 744 mmHg 69%
    20:00 +28°C° 0 mm 4 mps 745 mmHg 75%
    21:00 +28°C° 0 mm 4 mps 745 mmHg 77%
    22:00 +28°C° 0 mm 4 mps 745 mmHg 79%
    23:00 +27°C° 0 mm 4 mps 745 mmHg 82%

    27 July, Friday

    Time Temperature Precipitation Wind Pressure Humidity
    00:00 +27°C° 0 mm 4 mps 745 mmHg 83%
    01:00 +27°C° 0 mm 4 mps 745 mmHg 84%
    02:00 +26°C° 0 mm 4 mps 745 mmHg 85%
    03:00 +26°C° 0 mm 4 mps 745 mmHg 86%
    04:00 +26°C° 0 mm 4 mps 745 mmHg 87%
    05:00 +26°C° 0 mm 4 mps 745 mmHg 88%
    06:00 +27°C° 0 mm 4 mps 745 mmHg 79%
    07:00 +29°C° 0 mm 4 mps 745 mmHg 71%
    08:00 +30°C° 0 mm 4 mps 745 mmHg 63%
    09:00 +33°C° 0 mm 4 mps 745 mmHg 59%
    10:00 +34°C° 0 mm 4 mps 745 mmHg 55%
    11:00 +35°C° 0 mm 5 mps 745 mmHg 51%
    12:00 +35°C° 0 mm 5 mps 745 mmHg 51%
    13:00 +35°C° 0 mm 6 mps 745 mmHg 51%
    14:00 +35°C° 0 mm 6 mps 745 mmHg 52%
    15:00 +35°C° 0 mm 6 mps 745 mmHg 54%
    16:00 +34°C° 0 mm 6 mps 745 mmHg 56%
    17:00 +33°C° 0 mm 6 mps 744 mmHg 58%
    18:00 +32°C° 0 mm 6 mps 745 mmHg 65%
    19:00 +30°C° 0 mm 6 mps 745 mmHg 71%
    20:00 +29°C° 0 mm 6 mps 745 mmHg 78%
    21:00 +28°C° 0 mm 6 mps 745 mmHg 81%
    22:00 +28°C° 0 mm 6 mps 744 mmHg 83%
    23:00 +28°C° 0 mm 6 mps 744 mmHg 86%
    Show more